SCP
0 0 0 0 0 0 0 0 0 0 0 0 0 0 0 0 0 0 0 0 0 0 0 0 0 0 0 0 0 0 0 0 0 0 0 0 0 0 0 0 0 0 0
0 0 0 0 0 0 0 0 0 0 0 0 0 0 0 0 0 0 0 0 0 0 0 0 0 0 0 0 0 0 0 0 0 0 0 0 0 0 0 0 0 0 0
0 0 0 0 0 0 0 0 0 0 0 0 0 0 0 0 0 0 0 0 0 0 0 0 0 0 0 0 0 0 0 0 0 0 0 0 0 0 0 0 0 0 0
0 0 0 0 0 0 0 0 0 0 0 0 0 0 0 0 0 0 0 0 0 0 0 0 0 0 0 0 0 0 0 0 0 0 0 0 0 0 0 0 0 0 0
0 0 0 0 0 0 0 0 0 0 0 0 0 0 0 0 0 0 0 0 0 0 0 0 0 0 0 0 0 0 0 0 0 0 0 0 0 0 0 0 0 0 0
0 0 0 0 0 0 0 0 0 0 0 0 0 0 0 0 0 0 0 0 0 0 0 0 0 0 0 0 0 0 0 0 0 0 0 0 0 0 0 0 0 0 0
0 0 0 0 0 0 0 0 0 0 0 0 0 0 0 0 0 0 0 0 0 0 0 0 0 0 0 0 0 0 0 0 0 0 0 0 0 0 0 0 0 0 0
0 0 0 0 0 0 0 0 0 0 0 0 0 0 0 0 0 0 0 0 0 0 0 0 0 0 0 0 0 0 0 0 0 0 0 0 0 0 0 0 0 0 0
0 0 0 0 0 0 0 0 0 0 0 0 0 0 0 0 0 0 0 0 0 0 0 0 0 0 0 0 0 0 0 0 0 0 0 0 0 0 0 0 0 0 0
0 0 0 0 0 0 0 0 0 0 0 0 0 0 0 0 0 0 0 0 0 0 0 0 0 0 0 0 0 0 0 0 0 0 0 0 0 0 0 0 0 0 0
0 0 0 0 0 0 0 0 0 0 0 0 0 0 0 0 0 0 0 0 0 0 0 0 0 0 0 0 0 0 0 0 0 0 0 0 0 0 0 0 0 0 0
0 0 0 0 0 0 0 0 0 0 0 0 0 0 0 0 0 0 0 0 0 0 0 0 0 0 0 0 0 0 0 0 0 0 0 0 0 0 0 0 0 0 0
0 0 0 0 0 0 0 0 0 0 0 0 0 0 0 0 0 0 0 0 0 0 0 0 0 0 0 0 0 0 0 0 0 0 0 0 0 0 0 0 0 0 0
0 0 0 0 0 0 0 0 0 0 0 0 0 0 0 0 0 0 0 0 0 0 0 0 0 0 0 0 0 0 0 0 0 0 0 0 0 0 0 0 0 0 0
0 0 0 0 0 0 0 0 0 0 0 0 0 0 0 0 0 0 0 0 0 0 0 0 0 0 0 0 0 0 0 0 0 0 0 0 0 0 0 0 0 0 0
0 0 0 0 0 0 0 0 0 0 0 0 0 0 0 0 0 0 0 0 0 0 0 0 0 0 0 0 0 0 0 0 0 0 0 0 0 0 0 0 0 0 0
0 0 0 0 0 0 0 0 0 0 0 0 0 0 0 0 0 0 0 0 0 0 0 0 0 0 0 0 0 0 0 0 0 0 0 0 0 0 0 0 0 0 0
0 0 0 0 0 0 0 0 0 0 0 0 0 0 0 0 0 0 0 0 0 0 0 0 0 0 0 0 0 0 0 0 0 0 0 0 0 0 0 0 0 0 0
0 0 0 0 0 0 0 0 0 0 0 0 0 0 0 0 0 0 0 0 0 0 0 0 0 0 0 0 0 0 0 0 0 0 0 0 0 0 0 0 0 0 0
0 0 0 0 0 0 0 0 0 0 0 0 0 0 0 0 0 0 0 0 0 0 0 0 0 0 0 0 0 0 0 0 0 0 0 0 0 0 0 0 0 0 0
0 0 0 0 0 0 0 0 0 0 0 0 0 0 0 0 0 0 0 0 0 0 0 0 0 0 0 0 0 0 0 0 0 0 0 0 0 0 0 0 0 0 0
0 0 0 0 0 0 0 0 0 0 0 0 0 0 0 0 0 0 0 0 0 0 0 0 0 0 0 0 0 0 0 0 0 0 0 0 0 0 0 0 0 0 0
0 0 0 0 0 0 0 0 0 0 0 0 0 0 0 0 0 0 0 0 0 0 0 0 0 0 0 0 0 0 0 0 0 0 0 0 0 0 0 0 0 0 0
0 0 0 0 0 0 0 0 0 0 0 0 0 0 0 0 0 0 0 0 0 0 0 0 0 0 0 0 0 0 0 0 0 0 0 0 0 0 0 0 0 0 0
0 0 0 0 0 0 0 0 0 0 0 0 0 0 0 0 0 0 0 0 0 0 0 0 0 0 0 0 0 0 0 0 0 0 0 0 0 0 0 0 0 0 0
0 0 0 0 0 0 0 0 0 0 0 0 0 0 0 0 0 0 0 0 0 0 0 0 0 0 0 0 0 0 0 0 0 0 0 0 0 0 0 0 0 0 0
Wind_Speed
6 6 6 5 4 3 3 2 2 1 1 1 1 1 2 2 2 2 3 3 4 3 3 4 4 4 3 3 2 3 3 3 4 3 2 2 2 2 2 3 4 4 5
5 5 6 6 5 5 5 4 3 2 2 2 2 2 2 2 1 2 3 3 4 4 4 4 4 3 4 3 3 3 3 4 4 4 2 2 2 2 2 3 3 4 3
7 7 7 7 7 7 6 5 5 4 4 5 5 4 4 4 4 3 2 2 2 3 3 4 4 4 4 3 3 3 2 2 3 2 2 1 1 1 1 1 2 1 2
7 8 8 8 7 7 7 7 7 7 7 7 7 6 6 6 6 5 3 3 2 2 2 3 4 5 5 4 3 3 2 2 2 2 1 1 1 0 1 1 1 1 2
7 8 8 7 7 7 7 7 7 8 8 7 7 7 6 4 5 5 3 2 2 1 1 2 4 6 7 5 4 3 3 2 2 1 1 0 0 0 1 1 1 1 1
6 6 6 7 7 7 7 7 7 7 7 7 7 6 6 6 9 8 4 2 1 0 1 0 1 3 6 6 6 6 5 4 3 2 1 1 1 1 0 1 1 1 1
5 5 6 6 7 6 7 7 6 6 6 6 6 6 6 8 14 13 10 3 2 1 1 1 1 2 3 3 4 4 3 3 4 4 3 2 1 1 2 1 1 1 0
4 5 5 5 6 6 6 6 5 4 4 4 5 5 6 10 16 15 12 6 4 4 3 1 3 3 3 4 4 3 1 1 1 2 3 2 2 2 2 2 2 2 2
4 4 4 4 5 5 6 5 4 4 4 4 4 6 7 9 16 16 12 5 5 6 5 5 4 3 3 6 5 4 2 1 1 3 4 4 4 4 4 3 3 3 2
2 2 3 3 4 5 5 4 4 4 4 5 6 6 7 7 15 16 12 4 4 4 4 5 6 4 4 4 5 5 5 3 3 4 3 3 3 3 4 3 3 2 1
1 3 3 4 4 4 5 4 5 5 6 6 6 6 7 8 12 16 13 4 3 3 3 3 3 5 4 4 4 4 5 5 3 4 3 3 2 2 2 2 2 2 2
1 3 4 4 4 5 5 5 5 6 6 6 5 6 5 7 9 12 14 10 5 2 1 2 2 4 4 3 3 3 5 6 4 4 3 2 2 2 1 2 3 3 2
3 4 4 4 5 5 5 5 5 5 4 5 5 5 5 5 8 14 14 13 10 3 2 3 3 5 5 4 4 5 4 4 4 4 3 2 1 2 2 3 4 4 5
4 4 4 4 4 4 4 4 4 4 4 4 5 5 5 5 6 7 6 6 7 6 4 5 7 8 6 5 5 4 3 3 4 4 3 2 2 3 3 2 2 2 4
4 4 4 3 3 4 4 3 3 3 2 2 2 3 4 5 7 10 7 6 5 4 4 5 5 5 5 5 5 5 4 4 4 3 4 4 4 4 3 3 3 4 4
3 3 3 3 3 3 3 2 4 3 5 5 5 4 3 5 8 10 13 14 13 10 8 7 7 6 6 6 6 5 5 5 4 4 4 4 4 4 4 4 4 4 4
3 3 2 3 3 3 2 2 0 3 4 5 6 7 7 8 9 10 10 12 14 11 8 7 7 7 6 6 6 6 5 5 4 5 5 4 4 4 4 4 4 4 4
3 3 3 2 3 3 3 2 2 1 1 2 4 6 7 9 10 10 9 8 8 8 6 6 6 6 5 6 5 5 5 5 5 5 5 4 4 4 4 4 3 3 3
2 2 2 2 2 3 3 3 3 2 1 1 2 4 5 7 9 10 8 5 4 5 5 5 5 5 4 5 5 5 5 5 5 4 4 4 4 4 4 4 4 5 3
1 3 3 2 2 2 3 3 3 3 2 1 1 1 2 3 3 4 4 3 3 3 3 4 4 4 4 4 4 4 4 4 4 4 3 3 3 4 4 4 4 3 2
1 2 2 1 2 3 3 4 4 3 3 2 1 1 2 2 2 2 2 2 2 2 2 3 3 3 3 3 3 4 4 4 3 3 3 3 3 3 3 3 3 3 3
2 2 2 2 2 2 3 4 4 4 4 3 2 1 3 2 2 1 1 1 1 1 1 2 2 2 2 2 2 3 3 3 3 3 3 3 3 4 3 3 3 3 3
2 2 2 2 3 4 4 4 4 4 4 4 4 3 2 2 2 2 2 2 1 1 1 1 2 2 2 2 2 2 2 1 1 2 2 3 3 3 3 3 3 3 3
2 3 2 2 2 3 4 4 4 5 5 5 4 4 4 3 3 3 2 2 2 1 1 1 2 3 3 2 2 1 0 1 1 1 2 4 4 3 3 3 3 3 3
3 3 3 2 3 4 4 4 4 5 5 5 5 4 4 4 4 4 3 3 3 2 2 2 2 2 3 3 2 1 1 1 1 1 3 4 4 4 3 3 3 3 3
4 4 3 3 3 4 4 5 5 5 5 5 5 5 5 5 5 4 4 4 3 3 3 3 4 4 4 3 2 1 2 2 2 4 4 4 4 4 4 3 4 3 4
Wind_Direction
15 15 18 16 20 30 34 23 20 16 9 8 354 342 308 274 253 240 238 215 195 194 189 182 196 188 186 189 181 180 185 178 212 253 250 251 227 217 187 192 203 210 223
8 17 19 19 25 30 28 20 16 7 360 356 355 354 340 326 321 272 253 239 212 202 198 192 209 198 195 194 189 196 194 190 196 232 256 245 229 215 196 199 203 204 213
17 24 27 27 30 29 24 25 34 40 46 44 46 41 31 28 23 5 321 285 258 237 212 198 204 186 192 194 194 197 196 191 187 202 244 250 250 219 186 228 222 216 227
25 29 31 28 27 29 32 37 40 45 55 58 59 59 56 46 35 25 16 356 335 301 256 219 203 188 191 188 186 190 178 168 168 185 221 268 288 290 149 212 246 239 254
29 31 27 26 30 36 41 43 46 51 55 56 62 55 47 44 30 19 7 7 5 351 295 229 212 199 194 180 167 169 159 150 144 146 156 69 5 49 221 218 221 305 302
32 28 23 28 32 35 38 43 49 49 48 54 57 54 43 34 26 22 13 347 335 324 290 281 199 177 185 178 166 161 155 150 153 147 149 159 235 225 163 113 107 67 341
30 24 23 28 33 30 36 41 42 42 44 46 43 41 32 22 29 28 30 31 19 326 228 177 145 141 146 150 156 144 134 134 150 154 153 180 187 204 142 104 96 105 0
27 23 24 32 35 31 36 37 35 35 40 39 36 32 28 24 29 29 29 29 31 30 31 83 115 119 153 163 158 147 137 91 151 139 150 163 160 142 131 131 125 90 44
23 21 25 39 40 36 32 26 23 34 35 32 28 29 28 14 23 28 32 24 40 37 37 51 82 101 129 155 150 148 131 67 90 129 135 128 126 123 114 90 73 73 50
357 27 47 54 50 42 32 26 26 40 41 39 36 32 30 19 20 26 30 31 39 34 33 33 45 61 78 129 147 145 143 146 128 110 98 89 81 81 85 97 120 107 98
351 53 60 58 58 52 43 37 41 46 44 40 37 28 24 16 14 21 25 30 27 31 31 15 4 24 53 87 125 142 158 150 138 126 110 97 82 64 56 68 98 118 118
77 76 66 55 59 60 53 42 37 41 43 32 25 18 10 5 7 11 21 28 32 47 16 341 335 13 49 73 100 127 133 129 121 115 107 97 93 81 63 68 71 72 81
104 101 93 74 60 57 58 51 40 35 40 31 24 19 4 358 1 10 16 22 26 32 8 14 37 50 60 60 69 95 105 115 119 115 115 107 97 91 76 68 56 60 55
122 124 119 98 77 59 51 47 49 37 35 32 27 16 2 359 4 3 4 10 16 24 25 37 56 63 62 57 56 63 77 104 118 118 112 94 73 66 58 59 64 58 57
123 131 131 123 112 87 64 46 48 32 27 31 12 360 3 3 358 13 27 24 20 23 40 50 49 49 53 50 51 54 59 73 82 85 93 90 78 70 53 47 63 65 70
123 134 144 147 139 125 111 67 25 9 8 18 17 13 349 358 13 33 38 39 38 43 58 57 55 54 56 55 58 57 54 60 70 83 85 86 86 82 71 58 66 77 76
145 152 150 155 161 164 166 157 102 337 342 354 4 13 27 28 39 43 41 43 40 46 59 57 54 52 53 54 55 59 57 49 61 73 78 80 84 82 80 76 77 78 74
138 153 149 155 165 176 185 181 168 158 359 341 348 8 34 45 48 45 41 48 43 41 48 51 48 46 49 54 56 57 58 55 58 63 67 71 78 84 83 80 79 88 83
149 169 167 166 171 165 157 149 145 143 112 20 359 3 29 53 50 44 44 54 58 48 42 42 40 41 44 50 54 56 58 56 56 60 61 67 76 87 88 86 85 84 81
244 218 186 172 168 156 151 147 149 148 140 114 45 348 3 47 44 29 35 49 61 58 48 45 39 42 45 50 54 58 59 55 52 56 61 66 75 87 97 96 95 91 81
297 277 229 184 190 182 171 170 169 166 168 175 218 255 146 111 103 80 63 60 74 78 67 56 46 41 42 46 55 60 62 52 45 48 61 74 86 90 93 94 95 90 90
315 288 258 226 212 197 183 176 171 175 182 186 209 217 134 120 132 130 117 120 121 97 84 78 62 48 50 60 77 80 68 53 36 34 54 79 91 99 100 96 92 86 89
317 303 284 249 215 200 185 176 176 181 190 195 194 192 177 170 174 178 179 175 163 133 87 91 93 77 64 60 62 87 97 62 1 11 77 94 100 106 108 107 107 102 99
315 305 295 267 223 208 200 195 191 190 192 193 193 191 189 188 188 190 187 177 169 152 127 120 129 137 129 99 72 63 28 289 302 1 100 115 115 113 109 103 100 106 105
306 301 292 270 236 221 215 208 201 196 194 193 192 191 189 185 187 188 184 183 181 181 173 157 146 141 141 134 125 94 27 44 82 121 113 116 120 120 115 110 105 101 107
298 294 288 272 247 225 213 209 206 201 200 199 194 190 186 186 187 187 184 184 185 187 180 172 175 168 161 153 142 112 65 59 107 125 123 117 122 126 123 114 112 105 110